Cocoa Beach, FL

8:31 PM EDT on June 23, 2018 (GMT -0400)
Cape Canaveral Air Station Skid Strip

Weather History for KXMR - October, 2017

Change the Weather History Date:

Thursday, October 19, 2017

  Actual Average (KCOF) Record (KCOF)
Temperature  
Mean Temperature 80 °F -  
Max Temperature 84 °F 79 °F 87 °F (2004)
Min Temperature 75 °F 69 °F 62 °F (1997)
Cooling Degree Days 14    
Growing Degree Days 30 (Base 50)    
Moisture  
Dew Point 72 °F    
Average Humidity 78    
Maximum Humidity 89    
Minimum Humidity 66    
Precipitation  
Precipitation 0.02 in - - ()
Sea Level Pressure  
Sea Level Pressure 30.07 in    
Wind  
Wind Speed 12 mph (NE)    
Max Wind Speed 16 mph    
Max Gust Speed 25 mph    
Visibility 10 miles    
Events Rain    
Averages and records for this station are not official NWS values.
T = Trace of Precipitation, MM = Missing Value Source: NWS Daily Summary

Daily Weather History Graph

Daily Weather History Graph

Search for Another Location

Airport or City:

Astronomy

Oct. 19, 2017 Rise Set
Actual Time 7:25 AM EDT 6:48 PM EDT
Civil Twilight 7:01 AM EDT 7:12 PM EDT
Nautical Twilight 6:34 AM EDT 7:39 PM EDT
Astronomical Twilight 6:06 AM EDT 8:07 PM EDT
Moon 7:09 AM EDT (10/19) 7:06 PM EDT (10/19)
Length of Visible Light 12h 10m
Length of Day
11h 22m
Waning Crescent, 0% of the Moon is Illuminated
Oct 19
Waning Crescent
Oct 19
New
Oct 27
First Quarter
Nov 4
Full
Nov 10
Last Quarter

Hourly Weather History & Observations

Time (EDT) Temp. Heat Index Dew Point Humidity Pressure Visibility Wind Dir Wind Speed Gust Speed Precip Events Conditions
12:58 AM 78.1 °F - 69.6 °F 75% 30.08 in 10.0 mi ENE 10.4 mph - N/A   Partly Cloudy
1:58 AM 77.9 °F - 72.0 °F 82% 30.07 in 10.0 mi NE 15.0 mph 21.9 mph N/A   Mostly Cloudy
2:08 AM 77.0 °F - 71.6 °F 83% 30.06 in 10.0 mi NE 12.7 mph - N/A   Scattered Clouds
2:58 AM 77.2 °F - 71.2 °F 82% 30.05 in 10.0 mi NE 12.7 mph - N/A   Partly Cloudy
3:58 AM 76.8 °F - 72.1 °F 85% 30.04 in 10.0 mi NE 12.7 mph - N/A   Partly Cloudy
4:58 AM 76.3 °F - 72.0 °F 86% 30.03 in 10.0 mi NE 10.4 mph - N/A   Partly Cloudy
5:02 AM 77.0 °F - 71.6 °F 83% 30.03 in 8.0 mi NNE 13.8 mph - N/A Rain Rain
5:12 AM 77.0 °F - 73.4 °F 89% 30.03 in 10.0 mi NE 10.4 mph - N/A Rain Light Rain
5:43 AM 75.2 °F - 71.6 °F 89% 30.04 in 10.0 mi NE 5.8 mph - N/A Rain Light Rain
5:58 AM 75.7 °F - 70.5 °F 84% 30.04 in 10.0 mi ENE 8.1 mph - 0.02 in   Partly Cloudy
6:58 AM 76.8 °F - 70.7 °F 81% 30.05 in 10.0 mi NE 9.2 mph - N/A   Clear
7:58 AM 77.5 °F - 70.9 °F 80% 30.06 in 10.0 mi ENE 10.4 mph - N/A   Clear
8:58 AM - - - N/A% - - North - - N/A   Unknown
9:58 AM - - - N/A% - - North - - N/A   Unknown
10:58 AM 84.2 °F 94.1 °F 77.0 °F 79% 30.12 in 10.0 mi ENE 15.0 mph 19.6 mph N/A   Partly Cloudy
11:58 AM 84.2 °F 94.1 °F 77.0 °F 79% 30.11 in 10.0 mi ENE 15.0 mph 20.7 mph N/A   Partly Cloudy
12:58 PM 84.0 °F 89.9 °F 72.5 °F 68% 30.08 in 10.0 mi ENE 16.1 mph - N/A   Clear
1:58 PM 84.0 °F 90.2 °F 72.9 °F 69% 30.07 in 10.0 mi NE 16.1 mph 21.9 mph N/A   Partly Cloudy
2:58 PM 83.7 °F 89.2 °F 72.0 °F 68% 30.06 in 10.0 mi NE 15.0 mph 20.7 mph N/A   Clear
3:58 PM 83.7 °F 88.6 °F 71.2 °F 66% 30.05 in 10.0 mi NE 12.7 mph - N/A   Clear
4:58 PM 82.4 °F 87.7 °F 72.7 °F 72% 30.06 in 10.0 mi NE 10.4 mph 19.6 mph N/A   Scattered Clouds
5:58 PM 81.5 °F 85.9 °F 71.6 °F 72% 30.06 in 10.0 mi ENE 10.4 mph - N/A   Partly Cloudy
6:58 PM 79.2 °F - 70.7 °F 75% 30.06 in 10.0 mi NE 16.1 mph 25.3 mph N/A   Scattered Clouds
7:58 PM 77.4 °F - 70.0 °F 78% 30.08 in 10.0 mi NE 13.8 mph 23.0 mph N/A   Mostly Cloudy
8:58 PM 77.2 °F - 71.2 °F 82% 30.08 in 10.0 mi NNE 13.8 mph 24.2 mph N/A   Mostly Cloudy
9:36 PM 75.2 °F - 71.6 °F 89% 30.08 in 10.0 mi NNE 6.9 mph - N/A   Light Drizzle
9:52 PM 77.0 °F - 68.0 °F 74% 30.08 in 10.0 mi East 10.4 mph - N/A   Partly Cloudy
9:58 PM 77.2 °F - 68.9 °F 76% 30.08 in 10.0 mi East 11.5 mph - 0.00 in   Partly Cloudy
10:58 PM 78.4 °F - 70.5 °F 77% 30.09 in 10.0 mi East 10.4 mph - N/A   Mostly Cloudy
11:58 PM 78.6 °F - 69.3 °F 73% 30.09 in 10.0 mi East 11.5 mph 20.7 mph N/A   Clear